STARLINK-4658, 53612

Orbit data source: Space-Track

STARLINK-4658, 53612 is a payload satellite owned by SpaceX/Seattle (US) in LEO that was launched on Sun, 28 Aug 2022 UTC via an FALCON 9 launch vehicle from the Air Force Eastern Test Range (AFETR). Payload-class satellites include a variety of spacecraft equipped with specific instruments for various scientific and technological missions. These include communications satellites like Starlink; space stations such as the ISS; scientific satellites like the Hubble; Earth observation satellites from companies like Planet Labs, Umbra, and HawkEye 360; GPS; miniature CubeSats for education and research; and military/defense satellites.

Loading next visibility...
Identifier
53612, 2022-104AA
Orbit
LEO
Last TLE update
16 hours ago
Origin
Manufacturer
SpaceX/Seattle
Mission
Operational Commercial Communications
Bus & Motor
STARLINK, Unknown motor
Mass
300 kg wet, ~290 kg dry
Launch date (UTC)
2022-08-28 (3 years ago)
Launch vehicle
FALCON 9
Launch site
Air Force Eastern Test Range (AFETR)
Object type
Payload
Rocket body
Debris
Shape & HBR
Box + 1 Pan, 8.86 m
Radar Cross Section
13.562 m², Large (>1 m²)

Expand to show TLE details & history

TLE from 16 hours ago
0 STARLINK-4658
1 53612U 22104AA  25181.71032032  .00000667  00000-0  60016-4 0  9997
2 53612  53.2176 285.3749 0001118  82.0549 278.0570 15.08840391157595
Epoch: 2025-06-30T17:02Z
TLE epoch observation values (Epoch: 2025-06-30T17:02:51.675Z)
Latitude
-0.00003°
Longitude
110.64334°
Altitude
540.531 km
Speed
7.593 km/s
True Right ascension
19h 01m 29s
True Declination
0° 00' 00"
Sunlit
Object was in full shadow at epoch
Visualization orbit readout
Latitude
-7.77377°
Longitude
101.85131°
Altitude
542.02 km
Speed
7.592 km/s
Apparent Right ascension
15h 31m 35s
Apparent Declination
-53° 27' 27"
Sunlit
Object is in full shadow
Visualization observer readout
Local Sidereal Time
20:32:21
Azimuth
218.881° SW
Elevation
-23.502°
Doppler factor
1
Orbital elements
Apogee altitude
540.761 km
Perigee altitude
539.214 km
Semi-major axis
6,918.124 km
Eccentricity
0.00011
Inclination
53.2176°
RAAN
285.3749°
Arg. of periapsis
82.0549°
True anomaly
Unknown
Mean anomaly
278.057°
Eccentric anomaly
Unknown
Mean motion
3.7719 °/min
Orbital period
95.44 mins
BSTAR
0.000060016
Loading maneuver chart data...
Loading SW <> Apogee altitude chart data...
Loading historical data...
Loading historical data...
Loading historical data...
Loading historical data...
Loading historical data...
Loading historical data...
Loading historical data...

STARLINK-4658 Visibility forecast

Observer location: undefined°, undefined°

Span
Click to sort rows by Start time (UTC) header in descending order
Start Az.
Max El. time (UTC)
Max El. Az.
Max El.
End time (UTC)
End Az.
7 mins2025-07-01 09:06:09.271Z202.324° SSW2025-07-01 09:09:09.271Z146.505° SSE33.825°2025-07-01 09:13:09.271Z62.629° ENE
5 mins2025-07-01 10:47:09.271Z288.183° WNW2025-07-01 10:49:09.271Z339.544° N26.884°2025-07-01 10:52:09.271Z31.967° NE
5 mins2025-07-01 15:48:09.271Z334.632° NNW2025-07-01 15:50:09.271Z32.229° NE34.591°2025-07-01 15:53:09.271Z101.642° ESE
5 mins2025-07-01 17:27:09.271Z275.447° WNW2025-07-01 17:29:09.271Z235.413° WSW23.832°2025-07-01 17:32:09.271Z177.953° S
|